KC3BAN-13 Weather Reports


Display with metric or nautical units.
time (UTC)temp
F
wind
direction
speed
MPH
gust
MPH
rain 1hr
in
rain 24hr
in
rain mn
in
humidity
%
barometer
mb
20260905160902 80 58 1.0 4.0 0.00 0.00 0.00 71 1004.7
20260905160401 80 91 0.0 3.0 0.00 0.00 0.00 71 1004.8
20260905155900 80 91 0.0 3.0 0.00 0.00 0.00 75 1004.8
20260905154848 80 103 1.0 4.0 0.00 0.00 0.00 71 1004.9
20260905154603 80 47 1.0 5.0 0.00 0.00 0.00 72 1005.0
20260905153835 80 84 0.0 5.0 0.00 0.00 0.00 71 1005.0
20260905153330 80 86 1.0 7.0 0.00 0.00 0.00 71 1005.1
20260905153048 80 60 2.0 7.0 0.00 0.00 0.00 71 1005.1
20260905151811 80 77 0.0 3.0 0.00 0.00 0.00 73 1004.9
20260905151533 80 345 1.0 5.0 0.00 0.00 0.00 71 1004.9
20260905150800 80 70 1.0 5.0 0.00 0.00 0.00 72 1004.9
20260905150516 80 6 1.0 5.0 0.00 0.00 0.00 73 1004.9
20260905145746 79 89 0.0 2.0 0.00 0.00 0.00 75 1005.0
20260905145240 79 151 1.0 4.0 0.00 0.00 0.00 76 1004.9
20260905144735 79 149 2.0 7.0 0.00 0.00 0.00 75 1005.0
20260905144230 79 100 2.0 7.0 0.00 0.00 0.00 74 1004.9
20260905143944 79 64 2.0 5.0 0.00 0.00 0.00 75 1004.9
20260905143217 79 358 2.0 5.0 0.00 0.00 0.00 76 1004.6
20260905142711 78 71 1.0 8.0 0.00 0.00 0.00 78 1004.6
20260905142424 78 254 2.0 8.0 0.00 0.00 0.00 79 1004.5
20260905141700 78 53 3.0 9.0 0.00 0.00 0.00 78 1004.5
20260905141153 78 34 3.0 11.0 0.00 0.00 0.00 77 1004.6
20260905140908 78 25 3.0 11.0 0.00 0.00 0.00 79 1004.5
20260905140404 78 23 4.0 8.0 0.00 0.00 0.00 81 1004.4
20260905135635 78 53 4.0 9.0 0.00 0.00 0.00 81 1004.4
20260905135130 78 76 3.0 9.0 0.00 0.00 0.00 81 1004.4
20260905134623 77 46 4.0 11.0 0.00 0.00 0.00 81 1004.2
20260905134117 77 98 3.0 11.0 0.00 0.00 0.00 82 1004.3
20260905133831 77 56 2.0 7.0 0.00 0.00 0.00 84 1004.3
20260905133105 77 82 2.0 8.0 0.00 0.00 0.00 84 1004.4
20260905132600 76 105 2.0 8.0 0.00 0.00 0.00 83 1004.3
20260905132053 76 347 3.0 7.0 0.00 0.00 0.00 83 1004.3
20260905131546 76 70 2.0 6.0 0.00 0.00 0.00 82 1004.4
20260905131041 76 71 2.0 10.0 0.00 0.00 0.00 81 1004.3
20260905130535 75 84 3.0 10.0 0.00 0.00 0.00 80 1004.3
20260905125742 75 58 3.0 8.0 0.00 0.00 0.00 74 1004.0
20260905125016 74 87 2.0 8.0 0.00 0.00 0.00 70 1004.1
20260905124511 74 77 1.0 5.0 0.00 0.00 0.00 68 1004.2
20260905124005 74 67 1.0 5.0 0.00 0.00 0.00 67 1004.3
20260905122953 74 98 0.0 2.0 0.00 0.00 0.00 67 1004.3
20260905122446 74 276 0.0 1.0 0.00 0.00 0.00 67 1004.2
20260905121941 73 276 0.0 2.0 0.00 0.00 0.00 68 1004.2
20260905121434 73 86 0.0 2.0 0.00 0.00 0.00 68 1004.2
20260905121156 73 238 0.0 1.0 0.00 0.00 0.00 68 1004.1
20260905120422 72 238 0.0 1.0 0.00 0.00 0.00 68 1004.2
20260905115917 72 238 0.0 1.0 0.00 0.00 0.00 68 1004.0
20260905115637 72 238 0.0 0.0 0.00 0.00 0.00 68 1003.9
20260905114904 71 238 0.0 1.0 0.00 0.00 0.00 68 1003.8
20260905114401 71 238 0.0 1.0 0.00 0.00 0.00 68 1003.8
20260905113853 71 238 0.0 1.0 0.00 0.00 0.00 68 1004.0
20260905113347 71 238 0.0 0.0 0.00 0.00 0.00 68 1004.0
20260905113111 71 238 0.0 0.0 0.00 0.00 0.00 68 1003.9
20260905112335 71 238 0.0 0.0 0.00 0.00 0.00 68 1003.7
20260905111830 71 238 0.0 0.0 0.00 0.00 0.00 68 1003.6
20260905111323 71 238 0.0 0.0 0.00 0.00 0.00 68 1003.6
20260905110817 71 238 0.0 0.0 0.00 0.00 0.00 68 1003.6
20260905110311 71 238 0.0 0.0 0.00 0.00 0.00 69 1003.5
20260905105805 71 238 0.0 0.0 0.00 0.00 0.00 69 1003.6
20260905105300 71 238 0.0 0.0 0.00 0.00 0.00 69 1003.4
20260905104752 71 238 0.0 0.0 0.00 0.00 0.00 69 1003.3
20260905104246 71 238 0.0 0.0 0.00 0.00 0.00 68 1003.2
20260905103741 71 238 0.0 0.0 0.00 0.00 0.00 68 1003.1
20260905103235 71 238 0.0 1.0 0.00 0.00 0.00 68 1003.1
20260905102730 71 238 0.0 1.0 0.00 0.00 0.00 68 1003.2
20260905102223 71 254 0.0 1.0 0.00 0.00 0.00 68 1003.2
20260905101716 71 254 0.0 0.0 0.00 0.00 0.00 68 1003.1
20260905101211 71 254 0.0 0.0 0.00 0.00 0.00 68 1003.1
20260905100705 71 254 0.0 0.0 0.00 0.00 0.00 68 1003.0
20260905100201 71 254 0.0 0.0 0.00 0.00 0.00 69 1003.0
20260905095653 71 254 0.0 0.0 0.00 0.00 0.00 68 1003.0
20260905095146 71 254 0.0 1.0 0.00 0.00 0.00 68 1002.9
20260905094640 71 254 0.0 1.0 0.00 0.00 0.00 68 1002.9
20260905094356 71 254 0.0 1.0 0.00 0.00 0.00 69 1002.8
20260905093630 71 254 0.0 0.0 0.00 0.00 0.00 69 1002.9
20260905093123 71 254 0.0 0.0 0.00 0.00 0.00 69 1002.9
20260905092617 71 254 0.0 0.0 0.00 0.00 0.00 69 1002.9
20260905092331 71 254 0.0 0.0 0.00 0.00 0.00 68 1002.7
20260905091605 71 254 0.0 0.0 0.00 0.00 0.00 68 1002.8
20260905091101 71 254 0.0 1.0 0.00 0.00 0.00 68 1002.7
20260905090553 71 254 0.0 1.0 0.00 0.00 0.00 68 1002.7
20260905090047 71 257 0.0 0.0 0.00 0.00 0.00 69 1002.7
20260905085541 71 257 0.0 0.0 0.00 0.00 0.00 69 1002.8
20260905085257 71 257 0.0 0.0 0.00 0.00 0.00 69 1002.9
20260905084530 70 257 0.0 0.0 0.00 0.00 0.00 69 1002.9
20260905083517 71 257 0.0 0.0 0.00 0.00 0.00 70 1002.8
20260905083237 71 257 0.0 0.0 0.00 0.00 0.00 69 1002.9
20260905082505 71 257 0.0 0.0 0.00 0.00 0.00 69 1003.0
20260905082001 71 257 0.0 0.0 0.00 0.00 0.00 69 1003.0
20260905081453 71 257 0.0 0.0 0.00 0.00 0.00 70 1002.9
20260905080947 71 257 0.0 0.0 0.00 0.00 0.00 70 1003.0
20260905080441 71 257 0.0 0.0 0.00 0.00 0.00 70 1003.1
20260905075935 71 257 0.0 0.0 0.00 0.00 0.00 70 1003.1
20260905075430 71 257 0.0 0.0 0.00 0.00 0.00 70 1003.2
20260905074923 71 257 0.0 0.0 0.00 0.00 0.00 70 1003.2
20260905074417 71 257 0.0 0.0 0.00 0.00 0.00 70 1003.2
20260905073911 71 257 0.0 0.0 0.00 0.00 0.00 70 1003.2
20260905073626 72 257 0.0 0.0 0.00 0.00 0.00 70 1003.2
20260905073125 72 257 0.0 0.0 0.00 0.00 0.00 70 1003.2
20260905072400 72 257 0.0 0.0 0.00 0.00 0.00 70 1003.3
20260905071900 72 257 0.0 0.0 0.00 0.00 0.00 70 1003.3
20260905071621 72 257 0.0 0.0 0.00 0.00 0.00 70 1003.3
20260905070859 72 257 0.0 0.0 0.00 0.00 0.00 70 1003.4
20260905065855 73 257 0.0 0.0 0.00 0.00 0.00 70 1003.4
20260905065356 73 257 0.0 0.0 0.00 0.00 0.00 70 1003.5
20260905064853 73 257 0.0 2.0 0.00 0.00 0.00 69 1003.6
20260905064352 73 258 0.0 2.0 0.00 0.00 0.00 69 1003.6
20260905063850 73 209 0.0 2.0 0.00 0.00 0.00 69 1003.6
20260905063350 73 229 0.0 2.0 0.00 0.00 0.00 69 1003.7
20260905062850 73 270 0.0 1.0 0.00 0.00 0.00 69 1003.7
20260905062347 73 270 0.0 1.0 0.00 0.00 0.00 69 1003.7
20260905061845 73 271 0.0 1.0 0.00 0.00 0.00 69 1003.8
20260905061605 73 134 0.0 1.0 0.00 0.00 0.00 69 1003.8
20260905060843 73 134 0.0 1.0 0.00 0.00 0.00 69 1003.8
20260905060601 73 160 0.0 1.0 0.00 0.00 0.00 69 1003.8
20260905055841 73 131 0.0 0.0 0.00 0.00 0.00 69 1003.7
20260905055340 73 131 0.0 1.0 0.00 0.00 0.00 69 1003.8
20260905054841 73 131 0.0 1.0 0.00 0.00 0.00 69 1003.8
20260905054338 73 257 0.0 1.0 0.00 0.00 0.00 69 1003.9
20260905053836 73 229 0.0 1.0 0.00 0.00 0.00 69 1003.9
20260905053335 73 184 0.0 3.0 0.00 0.00 0.00 69 1004.0
20260905052834 73 153 0.0 3.0 0.00 0.00 0.00 69 1004.2
20260905052554 73 221 0.0 2.0 0.00 0.00 0.00 69 1004.2
20260905051835 73 221 0.0 2.0 0.00 0.00 0.00 69 1004.3
20260905051333 73 204 0.0 2.0 0.00 0.00 0.00 69 1004.3
20260905050832 73 205 0.0 2.0 0.00 0.00 0.00 69 1004.3
20260905050330 73 154 0.0 0.0 0.00 0.00 0.00 69 1004.4
20260905045831 73 154 0.0 0.0 0.00 0.00 0.00 70 1004.4
20260905044830 73 154 0.0 1.0 0.00 0.00 0.00 70 1004.5
20260905044330 73 236 0.0 1.0 0.00 0.00 0.00 70 1004.4
20260905043830 73 236 0.0 1.0 0.00 0.00 0.00 70 1004.4
20260905043330 73 210 0.0 2.0 0.00 0.00 0.00 70 1004.4
20260905042830 73 210 0.0 2.0 0.00 0.00 0.00 70 1004.5
20260905042331 73 265 0.0 1.0 0.00 0.00 0.00 70 1004.6
20260905041830 73 221 0.0 1.0 0.00 0.00 0.00 70 1004.6
20260905041551 73 221 0.0 1.0 0.00 0.00 0.00 70 1004.6
20260905041054 73 194 0.0 0.0 0.00 0.00 0.00 71 1004.6
20260905040333 73 194 0.0 1.0 0.00 0.00 0.00 71 1004.6
20260905040051 74 194 0.0 1.0 0.00 0.00 0.00 71 1004.6
20260905035324 74 128 0.0 1.0 0.00 0.00 0.00 71 1004.6
20260905034819 74 128 0.0 1.0 0.00 0.00 0.00 71 1004.7
20260905034312 74 195 0.0 0.0 0.00 0.00 0.00 72 1004.8
20260905033806 74 195 0.0 2.0 0.00 0.00 0.00 71 1004.7
20260905033300 74 195 0.0 2.0 0.00 0.00 0.00 71 1004.8
20260905032754 74 277 0.0 2.0 0.00 0.00 0.00 71 1004.8
20260905032249 74 179 1.0 3.0 0.00 0.00 0.00 71 1004.8
20260905031742 74 211 1.0 3.0 0.00 0.00 0.00 71 1004.9
20260905031236 74 176 0.0 1.0 0.00 0.00 0.00 71 1004.9
20260905030731 74 176 0.0 2.0 0.00 0.00 0.00 71 1004.9
20260905030447 74 176 0.0 2.0 0.00 0.00 0.00 71 1004.9
20260905025718 74 276 0.0 1.0 0.00 0.00 0.00 72 1004.8
20260905025212 74 276 0.0 1.0 0.00 0.00 0.00 72 1004.8
20260905024706 74 276 0.0 2.0 0.00 0.00 0.00 72 1004.8
20260905024430 74 284 0.0 2.0 0.00 0.00 0.00 72 1004.9
20260905023654 74 167 0.0 0.0 0.00 0.00 0.00 72 1004.8
20260905023148 74 162 0.0 1.0 0.00 0.00 0.00 72 1004.9
20260905022906 75 200 0.0 3.0 0.00 0.00 0.00 72 1004.9
20260905022136 75 250 0.0 3.0 0.00 0.00 0.00 72 1004.8
20260905021630 75 252 0.0 1.0 0.00 0.00 0.00 73 1004.7
20260905021124 75 274 0.0 1.0 0.00 0.00 0.00 72 1004.7
20260905020618 75 274 0.0 1.0 0.00 0.00 0.00 73 1004.7
20260905020112 75 136 0.0 2.0 0.00 0.00 0.00 73 1004.7
20260905015606 75 231 0.0 2.0 0.00 0.00 0.00 73 1004.7
20260905015100 75 228 0.0 1.0 0.00 0.00 0.00 73 1004.7
20260905014554 75 228 0.0 1.0 0.00 0.00 0.00 73 1004.7
20260905014048 76 228 0.0 1.0 0.00 0.00 0.00 73 1004.6
20260905013806 76 289 0.0 1.0 0.00 0.00 0.00 73 1004.5
20260905013036 76 289 0.0 1.0 0.00 0.00 0.00 73 1004.5
20260905012530 76 135 0.0 1.0 0.00 0.00 0.00 73 1004.4
20260905012025 76 141 0.0 0.0 0.00 0.00 0.00 73 1004.2
20260905011741 76 141 0.0 0.0 0.00 0.00 0.00 73 1004.2
20260905011012 76 141 0.0 1.0 0.00 0.00 0.00 73 1004.2
20260905010506 76 141 0.0 0.0 0.00 0.00 0.00 74 1004.2
20260905010001 76 141 0.0 0.0 0.00 0.00 0.00 74 1004.1
20260905005455 76 141 0.0 0.0 0.00 0.00 0.00 75 1004.0
20260905004949 76 141 0.0 0.0 0.00 0.00 0.00 75 1003.9
20260905004702 76 141 0.0 0.0 0.00 0.00 0.00 75 1004.2
20260905003936 76 141 0.0 0.0 0.00 0.00 0.00 76 1004.2
20260905003430 76 141 0.0 0.0 0.00 0.00 0.00 76 1004.2
20260905002924 76 141 0.0 0.0 0.00 0.00 0.00 76 1004.1
20260905002418 76 141 0.0 0.0 0.00 0.00 0.00 77 1004.1
20260905001912 76 141 0.0 0.0 0.00 0.00 0.00 77 1004.0
20260905001406 76 141 0.0 0.0 0.00 0.00 0.00 77 1003.9
20260905000901 76 141 0.0 0.0 0.00 0.00 0.00 78 1003.9
20260905000355 76 141 0.0 0.0 0.00 0.00 0.00 78 1004.0
20260904235848 76 141 0.0 0.0 0.00 0.00 0.00 79 1004.0
20260904235343 77 141 0.0 0.0 0.00 0.00 0.00 79 1004.0
20260904234836 77 141 0.0 0.0 0.00 0.00 0.00 79 1004.0
20260904234330 77 141 0.0 0.0 0.00 0.00 0.00 79 1003.9
20260904233824 77 141 0.0 0.0 0.00 0.00 0.00 80 1003.8
20260904233318 77 141 0.0 0.0 0.00 0.00 0.00 80 1003.8
20260904233043 77 141 0.0 0.0 0.00 0.00 0.00 80 1003.8
20260904232307 77 141 0.0 0.0 0.00 0.00 0.00 81 1003.8
20260904231800 77 141 0.0 0.0 0.00 0.00 0.00 81 1003.8
20260904231253 78 141 0.0 0.0 0.00 0.00 0.00 81 1003.9
20260904230748 78 141 0.0 0.0 0.00 0.00 0.00 81 1003.8
20260904230501 78 141 0.0 0.0 0.00 0.00 0.00 81 1003.9
20260904225740 78 141 0.0 0.0 0.00 0.00 0.00 81 1004.0
20260904225237 78 141 0.0 0.0 0.00 0.00 0.00 82 1004.0
20260904224956 78 141 0.0 0.0 0.00 0.00 0.00 82 1004.0
20260904224238 79 141 0.0 0.0 0.00 0.00 0.00 82 1003.9
20260904223735 78 141 0.0 1.0 0.00 0.00 0.00 82 1003.8
20260904223236 78 141 0.0 1.0 0.00 0.00 0.00 82 1003.8
20260904223002 78 141 0.0 1.0 0.00 0.00 0.00 82 1003.9
20260904222236 79 141 0.0 0.0 0.00 0.00 0.00 83 1004.0
20260904221736 79 141 0.0 0.0 0.00 0.00 0.00 83 1004.0
20260904221236 79 141 0.0 0.0 0.00 0.00 0.00 83 1004.2
20260904220951 79 141 0.0 0.0 0.00 0.00 0.00 83 1004.3
20260904220234 79 141 0.0 1.0 0.00 0.00 0.00 83 1004.5
20260904215732 80 141 0.0 1.0 0.00 0.00 0.00 83 1004.7
20260904215230 80 141 0.0 1.0 0.00 0.00 0.00 83 1004.7
20260904214730 80 141 0.0 1.0 0.00 0.00 0.00 82 1004.8
20260904214233 81 141 0.0 1.0 0.00 0.00 0.00 81 1004.7
20260904213727 82 141 0.0 1.0 0.00 0.00 0.00 80 1004.8
20260904213227 82 141 0.0 0.0 0.00 0.00 0.00 79 1004.7
20260904212951 83 141 0.0 0.0 0.00 0.00 0.00 76 1004.8
20260904212224 84 141 0.0 0.0 0.00 0.00 0.00 75 1004.8
20260904211721 84 141 0.0 0.0 0.00 0.00 0.00 73 1004.8
20260904211223 85 141 0.0 1.0 0.00 0.00 0.00 71 1004.7
20260904210721 85 141 0.0 1.0 0.00 0.00 0.00 70 1004.7
20260904210221 86 141 0.0 1.0 0.00 0.00 0.00 68 1004.5
20260904205722 86 141 0.0 1.0 0.00 0.00 0.00 67 1004.9
20260904205221 86 256 0.0 2.0 0.00 0.00 0.00 66 1005.1
20260904204722 86 250 0.0 2.0 0.00 0.00 0.00 65 1005.1
20260904204222 87 252 0.0 2.0 0.00 0.00 0.00 65 1005.2
20260904203718 87 232 0.0 2.0 0.00 0.00 0.00 64 1005.0
20260904203218 88 136 0.0 5.0 0.00 0.00 0.00 63 1005.1
20260904202217 89 174 0.0 3.0 0.00 0.00 0.00 61 1005.0
20260904201718 90 314 0.0 2.0 0.00 0.00 0.00 61 1004.8
20260904201217 90 94 0.0 2.0 0.00 0.00 0.00 62 1004.7
20260904200718 91 151 0.0 4.0 0.00 0.00 0.00 57 1004.5
20260904200218 91 11 1.0 8.0 0.00 0.00 0.00 56 1004.6
20260904195717 91 271 1.0 8.0 0.00 0.00 0.00 54 1004.9
20260904195214 92 110 1.0 3.0 0.00 0.00 0.00 57 1004.9
20260904194713 91 134 1.0 3.0 0.00 0.00 0.00 57 1004.9
20260904194214 92 102 1.0 4.0 0.00 0.00 0.00 57 1004.9
20260904193713 92 110 1.0 4.0 0.00 0.00 0.00 58 1004.8
20260904193214 92 123 1.0 6.0 0.00 0.00 0.00 57 1004.7
20260904192938 92 70 1.0 6.0 0.00 0.00 0.00 57 1004.7
20260904192214 92 87 1.0 3.0 0.00 0.00 0.00 56 1004.6
20260904191714 92 121 1.0 5.0 0.00 0.00 0.00 58 1004.7
20260904191214 92 95 1.0 5.0 0.00 0.00 0.00 58 1004.9
20260904190713 92 237 1.0 5.0 0.00 0.00 0.00 55 1004.9
20260904190214 92 124 0.0 3.0 0.00 0.00 0.00 57 1005.0
20260904185714 92 124 0.0 2.0 0.00 0.00 0.00 57 1005.0
20260904185214 91 127 1.0 5.0 0.00 0.00 0.00 56 1005.2
20260904184714 91 205 1.0 5.0 0.00 0.00 0.00 60 1005.3
20260904184214 91 209 1.0 4.0 0.00 0.00 0.00 57 1005.3
20260904183713 91 72 1.0 5.0 0.00 0.00 0.00 56 1005.4
20260904183214 91 155 1.0 5.0 0.00 0.00 0.00 59 1005.4
20260904182710 91 156 1.0 3.0 0.00 0.00 0.00 61 1005.4
20260904182204 90 69 0.0 2.0 0.00 0.00 0.00 62 1005.5
20260904181700 90 69 0.0 3.0 0.00 0.00 0.00 59 1005.5
20260904181152 90 69 0.0 4.0 0.00 0.00 0.00 60 1005.6
20260904180646 89 205 0.0 1.0 0.00 0.00 0.00 66 1005.6
20260904180141 89 315 1.0 4.0 0.00 0.00 0.00 62 1005.6
20260904175634 89 316 1.0 5.0 0.00 0.00 0.00 64 1005.6
20260904175133 88 196 1.0 6.0 0.00 0.00 0.00 65 1005.6
20260904174634 88 140 1.0 6.0 0.00 0.00 0.00 65 1005.6
20260904174130 88 212 1.0 3.0 0.00 0.00 0.00 62 1005.7
20260904173632 88 65 1.0 5.0 0.00 0.00 0.00 61 1005.7
20260904173130 87 61 2.0 5.0 0.00 0.00 0.00 62 1005.8
20260904172625 87 210 1.0 5.0 0.00 0.00 0.00 64 1005.8
20260904172126 87 226 1.0 5.0 0.00 0.00 0.00 65 1005.9
20260904171625 87 213 1.0 4.0 0.00 0.00 0.00 65 1005.9
20260904171125 87 85 0.0 3.0 0.00 0.00 0.00 67 1006.0
20260904170847 87 136 0.0 3.0 0.00 0.00 0.00 71 1005.9
20260904170123 86 13 1.0 5.0 0.00 0.00 0.00 71 1005.9
20260904165622 86 47 1.0 5.0 0.00 0.00 0.00 70 1006.0
20260904165120 85 73 1.0 4.0 0.00 0.00 0.00 75 1006.1
20260904164617 85 139 0.0 2.0 0.00 0.00 0.00 73 1006.2
20260904164116 85 91 1.0 5.0 0.00 0.00 0.00 74 1006.3
20260904163115 84 103 1.0 3.0 0.00 0.00 0.00 74 1006.4
20260904162614 84 51 1.0 3.0 0.00 0.00 0.00 73 1006.4
20260904162111 84 85 1.0 3.0 0.00 0.00 0.00 75 1006.5
20260904161610 83 105 1.0 4.0 0.00 0.00 0.00 74 1006.5